Satellite: PO-28
Catalog number: 22829
Epoch time:      08241.51075381
Element set:      22
Inclination:      098.3717 deg
RA of node:       200.8120 deg
Eccentricity:    0.0010239
Arg of perigee:   020.5184 deg
Mean anomaly:     339.6397 deg
Mean motion:   14.30195605 rev/day
Decay rate:        5.0e-08 rev/day^2
Epoch rev:           77846
Checksum:              288

Satellite: GO-32
Catalog number: 25397
Epoch time:      08240.75337106
Element set:     682
Inclination:      098.3601 deg
RA of node:       272.3647 deg
Eccentricity:    0.0001877
Arg of perigee:   058.0514 deg
Mean anomaly:     302.0849 deg
Mean motion:   14.23147907 rev/day
Decay rate:        9.3e-07 rev/day^2
Epoch rev:           52639
Checksum:              309

Satellite: NO-44
Catalog number: 26931
Epoch time:      08240.85885409
Element set:    0963
Inclination:      067.0518 deg
RA of node:       100.0216 deg
Eccentricity:    0.0007240
Arg of perigee:   265.8194 deg
Mean anomaly:     094.2046 deg
Mean motion:   14.29529697 rev/day
Decay rate:      -3.11e-06 rev/day^2
Epoch rev:           36065
Checksum:              308

Satellite: SO-50
Catalog number: 27607
Epoch time:      08240.64416830
Element set:    0685
Inclination:      064.5577 deg
RA of node:       196.6192 deg
Eccentricity:    0.0086292
Arg of perigee:   265.5694 deg
Mean anomaly:     093.5545 deg
Mean motion:   14.71376988 rev/day
Decay rate:        9.1e-07 rev/day^2
Epoch rev:           30548
Checksum:              350

Satellite: CO-55
Catalog number: 27844
Epoch time:      08240.64453059
Element set:    0383
Inclination:      098.7174 deg
RA of node:       247.9236 deg
Eccentricity:    0.0008909
Arg of perigee:   272.6065 deg
Mean anomaly:     087.4091 deg
Mean motion:   14.20593292 rev/day
Decay rate:        6.0e-08 rev/day^2
Epoch rev:           26758
Checksum:              334

Satellite: CO-57
Catalog number: 27848
Epoch time:      08240.58180017
Element set:     333
Inclination:      098.7174 deg
RA of node:       246.9445 deg
Eccentricity:    0.0009146
Arg of perigee:   277.1185 deg
Mean anomaly:     082.8946 deg
Mean motion:   14.20401437 rev/day
Decay rate:       -1.6e-07 rev/day^2
Epoch rev:           26754
Checksum:              321

Satellite: AO-51
Catalog number: 28375
Epoch time:      08241.49062522
Element set:     184
Inclination:      098.0687 deg
RA of node:       261.9862 deg
Eccentricity:    0.0083661
Arg of perigee:   294.2874 deg
Mean anomaly:     064.9594 deg
Mean motion:   14.40616562 rev/day
Decay rate:       -5.0e-08 rev/day^2
Epoch rev:           21881
Checksum:              331

Satellite: CO-56
Catalog number: 28941
Epoch time:      08241.43267829
Element set:     328
Inclination:      098.1119 deg
RA of node:       002.2135 deg
Eccentricity:    0.0156817
Arg of perigee:   137.9533 deg
Mean anomaly:     223.3906 deg
Mean motion:   15.60126333 rev/day
Decay rate:     3.0560e-04 rev/day^2
Epoch rev:           14129
Checksum:              299

Satellite: CP3
Catalog number: 31128
Epoch time:      08240.72931325
Element set:    0417
Inclination:      098.0334 deg
RA of node:       301.1241 deg
Eccentricity:    0.0104167
Arg of perigee:   113.5039 deg
Mean anomaly:     247.7156 deg
Mean motion:   14.51970944 rev/day
Decay rate:       -4.6e-07 rev/day^2
Epoch rev:           07231
Checksum:              266

Satellite: CP4
Catalog number: 31132
Epoch time:      08240.94939387
Element set:    0398
Inclination:      098.0357 deg
RA of node:       303.8375 deg
Eccentricity:    0.0087374
Arg of perigee:   105.6918 deg
Mean anomaly:     255.3943 deg
Mean motion:   14.55137804 rev/day
Decay rate:       -1.4e-07 rev/day^2
Epoch rev:           07238
Checksum:              325

Satellite: CO-65
Catalog number: 32785
Epoch time:      08241.46098518
Element set:     142
Inclination:      097.9874 deg
RA of node:       301.1841 deg
Eccentricity:    0.0013765
Arg of perigee:   261.6652 deg
Mean anomaly:     098.3002 deg
Mean motion:   14.81385805 rev/day
Decay rate:        3.0e-08 rev/day^2
Epoch rev:            1810
Checksum:              301

/EX
SB KEPS @ AMSAT  $ORB08241.W
Orbital Elements  08241.WEATHER

HR AMSAT ORBITAL ELEMENTS FOR WEATHER SATELLITES
FROM WA5QGD FORT WORTH,TX August 28, 2008
Send Subscribe/unsubscribe to KEPS at 
http://www.amsat.org/mailman/listinfo/keps
BID: ORB08241.W
TO ALL RADIO AMATEURS BT

Satellite: NOAA-10
Catalog number: 16969
Epoch time:      08241.49673108
Element set:     267
Inclination:      098.7218 deg
RA of node:       263.3140 deg
Eccentricity:    0.0012022
Arg of perigee:   334.7987 deg
Mean anomaly:     025.2619 deg
Mean motion:   14.27366971 rev/day
Decay rate:        4.6e-07 rev/day^2
Epoch rev:           14175
Checksum:              312

Satellite: NOAA-11
Catalog number: 19531
Epoch time:      08241.36992887
Element set:     299
Inclination:      098.7969 deg
RA of node:       329.6853 deg
Eccentricity:    0.0011065
Arg of perigee:   219.8732 deg
Mean anomaly:     140.1658 deg
Mean motion:   14.14876639 rev/day
Decay rate:       2.55e-06 rev/day^2
Epoch rev:            2811
Checksum:              345

